Погода в Дехканабаде

Узбекистан     38°20′56″N   66°29′42″E
темп.,
°C
ветер,
м/с
пор.,
м/с
влажн.,
%
обл.,
%
осадки,
мм/ч
давл.,
гПа
погр.,
м
27 февраля, сб
сб2723:00−5св11490 0.0 103025
02:00−5зсз01490 0.0 102924
05:00−4ссз114450 0.0 102974
08:00−4в0043100 0.0 1030104
11:000з223597 0.0 1030521
14:00+3з32368 0.0 1029909
17:00+3сз22384 0.0 1027739
20:00−1св12550 0.0 102826
28 февраля, вс
вс2823:00−1вюв22520 0.0 102641
02:000вюв23430 0.0 102436
05:000вюв23420 0.0 102226
08:00+1вюв22380 0.0 102227
11:00+9в12210 0.0 1020587
14:00+11з12190 0.0 10181095
17:00+10сз22290 0.0 1017458
20:00+4юв11440 0.0 101823
1 марта, пн
пн123:00+4юв33310 0.0 101831
02:00+5юв44264 0.0 101836
05:00+5юв442252 0.0 101727
08:00+7юв452381 0.0 101840
11:00+14ю571766 0.0 10181447
14:00+15ююз45170 0.0 10172142
17:00+14юз34210 0.0 10171182
20:00+8ююв123458 0.0 101822
2 марта, вт
вт223:00+9юв342461 0.0 101828
02:00+9вюв3420100 0.0 101928
05:00+9юв3322100 0.0 101824
08:00+9ююв2229100 0.0 101922
11:00+13з2423100 0.0 10191211
14:00+14ссз4328100 0.0 10191514
17:00+12с4336100 0.0 10181077
20:00+8всв334496 0.0 102072
3 марта, ср
ср323:00+7ююв015398 0.0 102025
02:00+7всв124998 0.0 101923
05:00+6ююв125399 0.0 101922
08:00+7ююв1155100 0.0 101922
11:00+11з244192 0.0 10191266
14:00+12зсз444679 0.0 10171317
17:00+10св236081 0.1 1016450
20:00+8всв226694 0.0 101523